Location: Bois de la Silve
(44.4667°N, 6.7833°E)
Time: 10:47:29
(UTC+00:00)

BREEZE-M DEB (TANK) - Pass Details

Date: 14 July 2020
Orbit: 274 x 20503 km, 49.2° (Epoch: 05 August)

Event Time Altitude Azimuth Distance (km) Brightness Sun altitude
Exits shadow 01:56:28 - 289° (WNW) 1,682 5.2 -16.8°
Reaches altitude 10° 01:56:46 10° 288° (WNW) 1,536 4.9 -16.8°
Maximum altitude 01:59:37 63° 206° (SSW) 796 3.3 -16.5°
Drops below altitude 10° 02:09:07 10° 127° (SE) 4,951 7.6 -15.5°
Sets 02:17:09 0° 126° (SE) 8,294 8.8 -14.7°
